www.pogodaiklimat.ru

Погода и климат >> Архив погоды >> Американское Самоа >> Фалеоло


ПОГОДА Фалеоло

  • Прогноз погоды Фалеоло
  • Монитор погоды Фалеоло

АРХИВ ПОГОДЫ Фалеоло

Время (UTC), дата Ветер
(напр.,м/с)
 
Видим.   Явления Облачность Т
(С)
Тd
(С)
f
(%)
Тe
(С)
Тes
(С)
Комфортность P
(гПа)
Po
(гПа)
Тmin
(С)
Tmax
(С)
R
(мм)
R24
(мм)
S
(см)
00 13.06 С 5 20 км в посл. час дождь 9/8 570 м
[Cb cap Ac As]
+29.6 +25.3 78 +43 +44 опасность
перегрева
1009.1 1008.5 +24.7 3
06 13.06 штиль 0 20 км осадки на расстоянии 9/8 720 м
[Cu Sc Ac As]
+27.1 +25.1 89 +39 +39 очень
душно
1009.9 1009.3
12 13.06 Ю 3 20 км осадки на расстоянии {ливн. осадки} 6/3 800 м
[Cu hum Cc]
+24.4 +23.4 94 +33 +33 очень
душно
1011.0 1010.4 +29.6 4
18 13.06 ЮВ 2 20 км мгла 8/3 720 м
[Cu hum Cs]
+23.8 +22.6 93 +31 +31 очень
душно
1011.3 1010.7
00 14.06 СВ 5 20 км мгла 6/1 960 м
[Cu hum Cc]
+30.6 +25.7 75 +45 +51 опасность
перегрева
1010.2 1009.6 +23.5
06 14.06 ЮВ 2 20 км 3/3 720 м
[Cu med, cong]
+25.8 +24.4 92 +36 +36 очень
душно
1010.2 1009.6
18 14.06 Ю 2 20 км мгла 3/3 700 м
[Cu hum]
+22.9 +22.2 96 +31 +31 очень
душно
1011.4 1010.8
00 15.06 З 3 20 км осадки на расстоянии 5/5 600 м
[Cu med, cong]
+31.2 +22.9 61 +41 +47 опасность
перегрева
1010.6 1010.0 +22.9
06 15.06 ЮВ 3 20 км {дождь} 3/3 800 м
[Cu med, cong]
+26.5 +24.7 90 +38 +38 очень
душно
1009.9 1009.3 0.0
12 15.06 штиль 0 20 км 3/3 750 м
[Cu hum]
+26.0 +25.0 94 +37 +37 очень
душно
1011.1 1010.5 +32.3
18 15.06 нст 2 20 км 3/3 800 м
[Cu med, cong]
+26.8 +24.3 86 +37 +37 очень
душно
1011.2 1010.6
00 16.06 нст 2 20 км мгла 4/4 720 м
[Cu med, cong]
+30.6 +25.1 73 +44 +53 опасность
перегрева
1010.6 1010.0
06 16.06 Ю 2 20 км осадки на расстоянии 5/5 600 м
[Cu med, cong]
+25.9 +25.0 95 +37 +37 очень
душно
1010.3 1009.7 0.0
12 16.06 штиль 0 20 км 1/1 900 м
[Cu hum]
+24.0 +23.3 96 +32 +32 очень
душно
1011.7 1011.1 +31.0
18 16.06 Ю 2 20 км мгла 6/3 800 м
[Cu med, cong Ac trans]
+24.3 +23.1 93 +32 +32 очень
душно
1011.3 1010.7
00 17.06 нст 2 20 км осадки на расстоянии 9/6 600 м
[Cu Sc Ac As]
+30.0 +24.9 74 +43 +46 опасность
перегрева
1010.4 1009.8 +23.5
06 17.06 штиль 0 20 км 5/5 700 м
[Cu Sc]
+26.5 +25.8 96 +39 +39 очень
душно
1010.6 1010.0
12 17.06 штиль 0 20 км 4/3 840 м
[Cu hum Cc]
+23.8 +22.6 93 +31 +31 очень
душно
1011.2 1010.6 +31.5
18 17.06 Ю 2 20 км осадки на расстоянии 6/3 900 м
[Cu hum Cc]
+22.7 +22.0 96 +31 +31 очень
душно
1011.0 1010.4
00 18.06 СВ 6 20 км мгла 6/4 840 м
[Cu med, cong Cs]
+31.5 +27.0 77 +49 +53 опасность
перегрева
1010.5 1009.9 +23.0
06 18.06 В 2 20 км 3/3 840 м
[Cu hum]
+26.4 +24.4 89 +37 +37 очень
душно
1010.6 1010.0
12 18.06 штиль 0 20 км 3/1 800 м
[Cu hum Ci fib]
+24.2 +23.0 93 +32 +32 очень
душно
1011.0 1010.4 +31.8
18 18.06 ЮВ 2 50 км 1/1 840 м
[Cu hum]
+22.6 +21.9 96 +30 +30 очень
душно
1010.9 1010.3
00 19.06 ЮВ 3 20 км осадки на расстоянии 8/8 720 м
[Cu Sc]
+30.8 +26.1 76 +46 +49 опасность
перегрева
1010.4 1009.8 +22.6
06 19.06 Ю 3 20 км осадки на расстоянии 6/6 540 м
[Cu Sc As trans]
+26.8 +25.0 90 +39 +39 очень
душно
1010.3 1009.7 0.0
12 19.06 ЮВ 1 20 км 5/5 700 м
[Cu med, cong]
+24.7 +23.7 94 +34 +34 очень
душно
1010.8 1010.2 +31.0
18 19.06 ЮВ 2 20 км мгла 3/3 720 м
[Cu med, cong]
+24.4 +23.7 96 +33 +33 очень
душно
1010.5 1009.9

 

Местоположение метеостанции Фалеоло (Американское Самоа): широта -13.81 долгота -172.00 высота над уровнем моря 5 м.

В архиве по умолчанию представлена погода Фалеоло за последнюю неделю. Архивные данные за месяц целиком и за предыдущие месяцы, начиная с января 2011 года, Вы можете получить, выбрав интересующий диапазон дат из раскрывающегося списка и нажав кнопку "Ввод!".


*Определитесь, кто Вы:
робот инопланетянин человек

Внимание! Время в таблицах - всемирное. Для получения местного времени необходимо прибавить поправку, которая равна 12 ч.

Смотрите также архив погоды в соседних городах и на ближайших метеорологических станциях:

Погода на Фалеоло восток (Самоа) (2 км)
Погода в Аэропорту Фалеоло (Самоа) (3 км)
Погода на Острове Маноно (Самоа) (13 км)
Погода в Аэропорту Маота (Самоа) (29 км)
Погода Апиа (Американское Самоа) (32 км)
Погода на Станции Togitogiga (Самоа) (35 км)
Погода на Станции Le Mafa (Самоа) (46 км)
Погода в Луфилуфи (Самоа) (48 км)
Погода на Станции Le Piu Tai (Самоа) (57 км)
Погода на Станции Mount Talu (Самоа) (82 км)

Пояснения к столбцам:

Ветер - указаны скорость ветра в м/с - средняя за 10 мин, порывы в срок и между сроками (в фигурных скобках) и направление, откуда дует ветер: С - северный, СВ - северо-восточный, В - восточный, ЮВ - юго-восточный, Ю - южный, ЮЗ - юго-западный, З - западный, СЗ - северо-западный.
Видимость - горизонтальная дальность видимости в метрах или километрах. При видимости от 1 до 10 км при отсутствии осадков обычно наблюдается дымка, при ухудшении видимости до 1 км и менее - туман. В сухую погоду видимость может ухудшаться дымом, пылью или мглою.
Явления - указаны атмосферные явления, наблюдавшиеся в срок или в последний час перед сроком; фигурными скобками обозначены явления, наблюдавшиеся между сроками (за 1-3 часа до срока); квадратными скобками обозначены град или гололедные отложения с указанием их диаметра в мм.
Облачность - указаны через наклонную черту общая и нижняя облачность в баллах и высота нижней границы облаков в метрах; квадратными скобками обозначены формы облаков: Ci - перистые, Cs - перисто-слоистые, Cc - перисто-кучевые, Ac - высококучевые, As - высокослоистые, Sc - слоисто-кучевые, Ns - слоисто-дождевые, Cu - кучевые, Cb - кучево-дождевые. Подробнее классификацию облаков см. в Атласе облаков (PDF).
T - Температура воздуха - температура, измеренная на высоте 2 м над землей.
Td - Температура точки росы - температура, при понижении до которой содержащийся в воздухе водяной пар достигнет насыщения.
f - Относительная влажность воздуха - влажноcть воздуха, измеренная на высоте 2 м над землей.
Te - Эффективная температура - температура, которую ощущает одетый по сезону человек в тени. Характеристика душности погоды. При расчете учитывается влияние влажности воздуха и скорости ветра на теплоощущения человека.
Tes - Эффективная температура на солнце - температура, которую ощущает человек, с поправкой на солнечный нагрев. Характеристика знойности погоды. Зависит от высоты солнца над горизонтом, облачности и скорости ветра. Ночью, в пасмурную погоду, а также при ветре 12 м/с и более поправка равна нулю.
P - Атмосферное давление - приведенное к уровню моря атмосферное давление.
Po - Атмосферное давление - измеренное на уровне метеостанции атмосферное давление.
Tmin - Минимальная температура - минимум температуры воздуха на высоте 2 м над землей.
Tmax - Максимальная температура - максимум температуры воздуха на высоте 2 м над землей.
R - Количество осадков - Количество выпавших осадков за период времени, мм. При наведении курсора мыши на число - период времени, за который выпало указанное количество осадков.
R24 - Количество осадков - Количество выпавших осадков за 24 часа, мм.
S - Снежный покров - Высота снежного покрова, см. При наведении курсора мыши на число - состояние снежного покрова и степень покрытия местности в баллах.